Home > Weather > Pasadena > Past weeks

Flag for USA Weather for the Past 2 Weeks in Pasadena, California, USA

Now
54 °F

Low clouds.


Feels Like: 54 °F
Forecast: 53 / 74 °F
Wind: No wind

Location: Bob Hope Airport

Current Time: May 1, 2016 at 5:55:55 AM

Latest Report: May 1, 2016 at 4:53 AM


Visibility: 10 mi

Pressure: 29.83 "Hg

Humidity: 74%

Dew Point: 46 °F

Location of PasadenaLocation

Historic Weather in Pasadena — Graph

°F

Pasadena Temperature Yesterday

Maximum temperature yesterday: 67 °F (at 1:53 PM)
Minimum temperature yesterday: 54 °F (at 2:53 AM)
Average temperature yesterday: 60 °F

High & Low Weather Summary for the Past Weeks

 TemperatureHumidityPressure
High88 °F (Apr 18, 2:53 PM)83% (Apr 30, 3:53 AM)30.04 "Hg (Apr 30, 3:53 AM)
Low47 °F (Apr 26, 5:53 AM)5% (Apr 16, 3:53 PM)29.70 "Hg (Apr 27, 7:53 PM)
Average66 °F42%29.89 "Hg
* Reported Apr 16 4:53 AM — May 1 4:53 AM, Pasadena, Weather by CustomWeather, © 2016

Note: Actual official high and low records may vary slightly from our data, if they occured in-between our weather recording intervals... More about our weather records

Advertising

Pasadena Weather History for the Previous 24 Hours

Scroll right to see more
 ConditionsComfort  
Time TempWeatherWind HumidityBarometerVisibility
4:53 AM
Sun, May 1
54 °FLow clouds.No wind74%29.83 "Hg10 mi
3:53 AM55 °FClear.No wind72%29.82 "Hg10 mi
2:53 AM55 °FClear.No wind69%29.81 "Hg10 mi
1:53 AM56 °FClear.No wind72%29.81 "Hg10 mi
12:53 AM57 °FClear.6 mph72%29.82 "Hg10 mi
11:53 PM
Sat, Apr 30
57 °FClear.3 mph72%29.81 "Hg10 mi
10:53 PM59 °FClear.6 mph64%29.81 "Hg10 mi
9:53 PM61 °FClear.7 mph58%29.80 "Hg10 mi
8:53 PM61 °FClear.3 mph58%29.78 "Hg10 mi
7:53 PM61 °FSunny.5 mph58%29.77 "Hg10 mi
6:53 PM63 °FSunny.8 mph54%29.75 "Hg10 mi
5:53 PM65 °FSunny.7 mph49%29.74 "Hg10 mi
4:53 PM66 °FScattered clouds.9 mph49%29.74 "Hg10 mi
3:53 PM66 °FSunny.12 mph47%29.74 "Hg10 mi
2:53 PM67 °FSunny.12 mph47%29.75 "Hg10 mi
1:53 PM67 °FSunny.9 mph49%29.76 "Hg10 mi
12:53 PM66 °FPassing clouds.9 mph50%29.76 "Hg10 mi
11:53 AM66 °FScattered clouds.5 mph52%29.77 "Hg10 mi
10:53 AM64 °FSunny.8 mph52%29.78 "Hg10 mi
9:53 AM61 °FScattered clouds.5 mph60%29.79 "Hg10 mi
8:53 AM59 °FSunny.3 mph64%29.80 "Hg10 mi
7:53 AM57 °FPassing clouds.No wind74%29.81 "Hg10 mi
6:53 AM55 °FPassing clouds.3 mph80%29.80 "Hg10 mi
5:53 AM54 °FOvercast.5 mph83%29.77 "Hg10 mi
Weather by CustomWeather, © 2016

See weather overviewHow to use our weather pages